Time,TemperatureF,DewpointF,PressureIn,WindDirection,WindDirectionDegrees,WindSpeedMPH,WindSpeedGustMPH,Humidity,HourlyPrecipIn,Conditions,Clouds,dailyrainin,SolarRadiationWatts/m^2,SoftwareType,DateUTC
2013-09-03 00:04:00,47.2,44.7,30.04,North,5,0.0,0.0,91,0.00,,FEW,0.00,0.00,VWS V14.01,2013-09-03 05:04:00,
2013-09-03 00:09:00,47.2,44.7,30.04,North,5,0.0,0.0,91,0.00,,FEW,0.00,0.00,VWS V14.01,2013-09-03 05:09:00,
2013-09-03 00:14:00,47.2,44.7,30.04,North,5,0.0,0.0,91,0.00,,FEW,0.00,0.00,VWS V14.01,2013-09-03 05:14:00,
2013-09-03 00:19:00,47.2,44.7,30.04,North,5,0.0,0.0,91,0.00,,FEW,0.00,0.00,VWS V14.01,2013-09-03 05:19:00,
2013-09-03 00:24:00,47.2,44.7,30.04,North,5,0.0,0.0,91,0.00,,FEW,0.00,0.00,VWS V14.01,2013-09-03 05:24:00,
2013-09-03 00:29:00,47.0,44.5,30.04,North,5,0.0,0.0,91,0.00,,FEW,0.00,0.00,VWS V14.01,2013-09-03 05:29:00,
2013-09-03 00:34:00,47.0,44.5,30.04,North,5,0.0,0.0,91,0.00,,FEW,0.00,0.00,VWS V14.01,2013-09-03 05:34:00,
2013-09-03 00:39:00,46.9,44.4,30.04,North,5,0.0,0.0,91,0.00,,FEW,0.00,0.00,VWS V14.01,2013-09-03 05:39:00,
2013-09-03 00:45:00,46.8,44.3,30.04,North,5,0.0,0.0,91,0.00,,FEW,0.00,0.00,VWS V14.01,2013-09-03 05:45:00,
2013-09-03 00:50:00,46.6,44.1,30.04,North,5,0.0,0.0,91,0.00,,FEW,0.00,0.00,VWS V14.01,2013-09-03 05:50:00,
2013-09-03 00:55:00,46.5,44.0,30.04,North,5,0.0,0.0,91,0.00,,FEW,0.00,0.00,VWS V14.01,2013-09-03 05:55:00,
2013-09-03 01:00:00,46.5,44.3,30.04,North,5,0.0,0.0,92,0.00,,FEW,0.00,0.00,VWS V14.01,2013-09-03 06:00:00,
2013-09-03 01:05:00,46.5,44.3,30.05,North,5,0.0,0.0,92,0.00,,FEW,0.00,0.00,VWS V14.01,2013-09-03 06:05:00,
2013-09-03 01:10:00,46.5,44.3,30.05,North,5,0.0,0.0,92,0.00,,FEW,0.00,0.00,VWS V14.01,2013-09-03 06:10:00,
2013-09-03 01:15:00,46.5,44.3,30.05,North,5,0.0,0.0,92,0.00,,FEW,0.00,0.00,VWS V14.01,2013-09-03 06:15:00,
2013-09-03 01:20:00,46.4,44.2,30.05,North,5,0.0,0.0,92,0.00,,FEW,0.00,0.00,VWS V14.01,2013-09-03 06:20:00,
2013-09-03 01:25:00,46.5,44.3,30.05,North,5,0.0,0.0,92,0.00,,FEW,0.00,0.00,VWS V14.01,2013-09-03 06:25:00,
2013-09-03 01:30:00,46.4,44.2,30.05,North,5,0.0,0.0,92,0.00,,FEW,0.00,0.00,VWS V14.01,2013-09-03 06:30:00,
2013-09-03 01:35:00,46.4,44.2,30.05,North,5,0.0,0.0,92,0.00,,FEW,0.00,0.00,VWS V14.01,2013-09-03 06:35:00,
2013-09-03 01:40:00,46.4,44.2,30.05,North,5,0.0,0.0,92,0.00,,FEW,0.00,0.00,VWS V14.01,2013-09-03 06:40:00,
2013-09-03 01:45:00,46.5,44.3,30.05,North,5,0.0,0.0,92,0.00,,FEW,0.00,0.00,VWS V14.01,2013-09-03 06:45:00,
2013-09-03 01:50:00,46.5,44.3,30.05,North,5,0.0,0.0,92,0.00,,FEW,0.00,0.00,VWS V14.01,2013-09-03 06:50:00,
2013-09-03 01:55:00,46.6,44.4,30.05,North,5,0.0,0.0,92,0.00,,FEW,0.00,0.00,VWS V14.01,2013-09-03 06:55:00,
2013-09-03 02:00:00,46.6,44.4,30.05,North,5,0.0,0.0,92,0.00,,FEW,0.00,0.00,VWS V14.01,2013-09-03 07:00:00,
2013-09-03 02:05:00,46.4,44.2,30.05,North,5,0.0,0.0,92,0.00,,FEW,0.00,0.00,VWS V14.01,2013-09-03 07:05:00,
2013-09-03 02:10:00,46.1,43.9,30.05,North,5,0.0,0.0,92,0.00,,FEW,0.00,0.00,VWS V14.01,2013-09-03 07:10:00,
2013-09-03 02:15:00,45.9,43.7,30.05,North,5,0.0,0.0,92,0.00,,FEW,0.00,0.00,VWS V14.01,2013-09-03 07:15:00,
2013-09-03 02:20:00,45.8,43.6,30.05,North,5,0.0,0.0,92,0.00,,FEW,0.00,0.00,VWS V14.01,2013-09-03 07:20:00,
2013-09-03 02:25:00,45.7,43.5,30.05,North,5,0.0,0.0,92,0.00,,FEW,0.00,0.00,VWS V14.01,2013-09-03 07:25:00,
2013-09-03 02:30:00,45.7,43.5,30.05,North,5,0.0,0.0,92,0.00,,FEW,0.00,0.00,VWS V14.01,2013-09-03 07:30:00,
2013-09-03 02:35:00,45.6,43.4,30.05,North,5,0.0,0.0,92,0.00,,FEW,0.00,0.00,VWS V14.01,2013-09-03 07:35:00,
2013-09-03 02:40:00,45.5,43.3,30.04,North,5,0.0,0.0,92,0.00,,FEW,0.00,0.00,VWS V14.01,2013-09-03 07:40:00,
2013-09-03 02:45:00,45.5,43.3,30.05,North,5,0.0,0.0,92,0.00,,FEW,0.00,0.00,VWS V14.01,2013-09-03 07:45:00,
2013-09-03 02:50:00,45.4,43.2,30.05,North,5,0.0,0.0,92,0.00,,FEW,0.00,0.00,VWS V14.01,2013-09-03 07:50:00,
2013-09-03 02:55:00,45.4,43.2,30.05,North,5,0.0,0.0,92,0.00,,FEW,0.00,0.00,VWS V14.01,2013-09-03 07:55:00,
2013-09-03 03:00:00,45.5,43.6,30.05,North,5,0.0,0.0,93,0.00,,FEW,0.00,0.00,VWS V14.01,2013-09-03 08:00:00,
2013-09-03 03:05:00,45.6,43.4,30.05,North,5,0.0,0.0,92,0.00,,FEW,0.00,0.00,VWS V14.01,2013-09-03 08:05:00,
2013-09-03 03:10:00,45.6,43.4,30.05,North,5,0.0,0.0,92,0.00,,FEW,0.00,0.00,VWS V14.01,2013-09-03 08:10:00,
2013-09-03 03:15:00,45.5,43.3,30.04,North,5,0.0,0.0,92,0.00,,FEW,0.00,0.00,VWS V14.01,2013-09-03 08:15:00,
2013-09-03 03:20:00,45.5,43.3,30.04,North,5,0.0,0.0,92,0.00,,FEW,0.00,0.00,VWS V14.01,2013-09-03 08:20:00,
2013-09-03 03:25:00,45.4,43.5,30.04,North,5,0.0,0.0,93,0.00,,FEW,0.00,0.00,VWS V14.01,2013-09-03 08:25:00,
2013-09-03 03:30:00,45.3,43.1,30.04,NW,323,0.0,0.0,92,0.00,,FEW,0.00,0.00,VWS V14.01,2013-09-03 08:30:00,
2013-09-03 03:35:00,45.1,42.9,30.04,NW,323,0.0,0.0,92,0.00,,FEW,0.00,0.00,VWS V14.01,2013-09-03 08:35:00,
2013-09-03 03:41:00,45.1,42.9,30.04,NW,323,0.0,0.0,92,0.00,,FEW,0.00,0.00,VWS V14.01,2013-09-03 08:41:00,
2013-09-03 03:46:00,45.1,42.9,30.04,NW,323,0.0,0.0,92,0.00,,FEW,0.00,0.00,VWS V14.01,2013-09-03 08:46:00,
2013-09-03 03:51:00,45.1,43.2,30.04,NW,323,0.0,1.0,93,0.00,,FEW,0.00,0.00,VWS V14.01,2013-09-03 08:51:00,
2013-09-03 03:56:00,45.5,43.6,30.04,NW,323,0.0,1.0,93,0.00,,FEW,0.00,0.00,VWS V14.01,2013-09-03 08:56:00,
2013-09-03 04:01:00,46.0,44.1,30.04,NW,323,0.0,0.0,93,0.00,,FEW,0.00,0.00,VWS V14.01,2013-09-03 09:01:00,
2013-09-03 04:06:00,46.0,44.1,30.04,NW,323,0.0,0.0,93,0.00,,FEW,0.00,0.00,VWS V14.01,2013-09-03 09:06:00,
2013-09-03 04:11:00,45.8,43.9,30.04,NW,323,0.0,0.0,93,0.00,,FEW,0.00,0.00,VWS V14.01,2013-09-03 09:11:00,
2013-09-03 04:16:00,45.6,43.7,30.04,NW,323,0.0,0.0,93,0.00,,FEW,0.00,0.00,VWS V14.01,2013-09-03 09:16:00,
2013-09-03 04:21:00,45.5,43.6,30.04,NW,323,0.0,0.0,93,0.00,,FEW,0.00,0.00,VWS V14.01,2013-09-03 09:21:00,
2013-09-03 04:26:00,45.3,43.1,30.04,NW,322,2.0,2.0,92,0.00,,FEW,0.00,0.00,VWS V14.01,2013-09-03 09:26:00,
2013-09-03 04:31:00,45.2,43.3,30.04,NW,322,0.0,3.0,93,0.00,,FEW,0.00,0.00,VWS V14.01,2013-09-03 09:31:00,
2013-09-03 04:36:00,45.1,43.2,30.04,NW,322,0.0,2.0,93,0.00,,FEW,0.00,0.00,VWS V14.01,2013-09-03 09:36:00,
2013-09-03 04:41:00,45.1,43.2,30.04,NW,322,0.0,0.0,93,0.00,,FEW,0.00,0.00,VWS V14.01,2013-09-03 09:41:00,
2013-09-03 04:46:00,45.1,43.2,30.05,NW,322,0.0,0.0,93,0.00,,FEW,0.00,0.00,VWS V14.01,2013-09-03 09:46:00,
2013-09-03 04:51:00,45.2,43.3,30.04,NW,322,0.0,0.0,93,0.00,,FEW,0.00,0.00,VWS V14.01,2013-09-03 09:51:00,
2013-09-03 04:56:00,45.1,43.2,30.04,NW,322,0.0,0.0,93,0.00,,FEW,0.00,0.00,VWS V14.01,2013-09-03 09:56:00,
2013-09-03 05:01:00,45.1,43.2,30.04,NW,322,0.0,0.0,93,0.00,,FEW,0.00,0.00,VWS V14.01,2013-09-03 10:01:00,
2013-09-03 05:06:00,45.0,43.1,30.04,NW,322,0.0,0.0,93,0.00,,FEW,0.00,0.00,VWS V14.01,2013-09-03 10:06:00,
2013-09-03 05:11:00,45.0,43.1,30.04,NW,322,0.0,0.0,93,0.00,,FEW,0.00,0.00,VWS V14.01,2013-09-03 10:11:00,
2013-09-03 05:16:00,44.9,43.0,30.05,NW,322,0.0,0.0,93,0.00,,FEW,0.00,0.00,VWS V14.01,2013-09-03 10:16:00,
2013-09-03 05:21:00,44.9,43.0,30.05,NW,322,0.0,0.0,93,0.00,,FEW,0.00,0.00,VWS V14.01,2013-09-03 10:21:00,
2013-09-03 05:26:00,44.9,43.0,30.05,NW,322,0.0,0.0,93,0.00,,FEW,0.00,0.00,VWS V14.01,2013-09-03 10:26:00,
2013-09-03 05:31:00,44.9,43.0,30.05,NW,322,0.0,0.0,93,0.00,,FEW,0.00,0.00,VWS V14.01,2013-09-03 10:31:00,
2013-09-03 05:36:00,44.9,43.0,30.05,NW,322,0.0,0.0,93,0.00,,FEW,0.00,0.00,VWS V14.01,2013-09-03 10:36:00,
2013-09-03 05:41:00,44.8,42.9,30.05,NW,322,0.0,0.0,93,0.00,,FEW,0.00,0.00,VWS V14.01,2013-09-03 10:41:00,
2013-09-03 05:46:00,44.6,42.7,30.05,NW,322,0.0,0.0,93,0.00,,FEW,0.00,0.00,VWS V14.01,2013-09-03 10:46:00,
2013-09-03 05:51:00,44.5,42.6,30.06,NW,322,0.0,0.0,93,0.00,,FEW,0.00,0.00,VWS V14.01,2013-09-03 10:51:00,
2013-09-03 05:57:00,44.5,42.6,30.06,NW,322,0.0,0.0,93,0.00,,FEW,0.00,0.00,VWS V14.01,2013-09-03 10:57:00,
2013-09-03 06:02:00,44.4,42.5,30.06,NW,322,0.0,0.0,93,0.00,,FEW,0.00,0.00,VWS V14.01,2013-09-03 11:02:00,
2013-09-03 06:07:00,44.4,42.5,30.06,NW,322,0.0,0.0,93,0.00,,FEW,0.00,0.00,VWS V14.01,2013-09-03 11:07:00,
2013-09-03 06:12:00,44.3,42.4,30.06,NW,322,0.0,0.0,93,0.00,,FEW,0.00,0.00,VWS V14.01,2013-09-03 11:12:00,
2013-09-03 06:17:00,44.2,42.3,30.06,NW,322,0.0,0.0,93,0.00,,FEW,0.00,0.00,VWS V14.01,2013-09-03 11:17:00,
2013-09-03 06:22:00,44.1,42.2,30.06,NW,322,0.0,0.0,93,0.00,,FEW,0.00,0.00,VWS V14.01,2013-09-03 11:22:00,
2013-09-03 06:27:00,44.0,42.1,30.06,NW,322,0.0,0.0,93,0.00,,FEW,0.00,0.00,VWS V14.01,2013-09-03 11:27:00,
2013-09-03 06:32:00,43.9,42.0,30.06,NW,322,0.0,0.0,93,0.00,,FEW,0.00,5.00,VWS V14.01,2013-09-03 11:32:00,
2013-09-03 06:37:00,43.8,41.9,30.07,NW,322,0.0,0.0,93,0.00,,FEW,0.00,7.00,VWS V14.01,2013-09-03 11:37:00,
2013-09-03 06:42:00,43.6,41.7,30.07,NW,322,0.0,0.0,93,0.00,,FEW,0.00,9.00,VWS V14.01,2013-09-03 11:42:00,
2013-09-03 06:47:00,43.4,41.5,30.07,NW,322,0.0,0.0,93,0.00,,FEW,0.00,9.00,VWS V14.01,2013-09-03 11:47:00,
2013-09-03 06:52:00,43.3,41.4,30.07,NW,322,0.0,0.0,93,0.00,,FEW,0.00,11.00,VWS V14.01,2013-09-03 11:52:00,
2013-09-03 06:58:00,43.2,41.3,30.07,NW,322,0.0,0.0,93,0.00,,FEW,0.00,12.00,VWS V14.01,2013-09-03 11:58:00,
2013-09-03 07:03:00,43.2,41.3,30.07,NW,317,2.0,3.0,93,0.00,,FEW,0.00,12.00,VWS V14.01,2013-09-03 12:03:00,
2013-09-03 07:08:00,43.2,41.3,30.07,WNW,283,3.0,3.0,93,0.00,,FEW,0.00,16.00,VWS V14.01,2013-09-03 12:08:00,
2013-09-03 07:13:00,43.2,41.3,30.07,WNW,283,2.0,3.0,93,0.00,,FEW,0.00,18.00,VWS V14.01,2013-09-03 12:13:00,
2013-09-03 07:18:00,43.4,41.5,30.07,WNW,283,0.0,3.0,93,0.00,,FEW,0.00,16.00,VWS V14.01,2013-09-03 12:18:00,
2013-09-03 07:23:00,43.4,41.5,30.07,WNW,283,0.0,0.0,93,0.00,,FEW,0.00,18.00,VWS V14.01,2013-09-03 12:23:00,
2013-09-03 07:28:00,43.5,41.6,30.07,WNW,283,0.0,0.0,93,0.00,,FEW,0.00,18.00,VWS V14.01,2013-09-03 12:28:00,
2013-09-03 07:33:00,43.6,41.7,30.08,West,267,0.0,0.0,93,0.00,,FEW,0.00,19.00,VWS V14.01,2013-09-03 12:33:00,
2013-09-03 07:38:00,43.8,41.9,30.08,SW,233,0.0,3.0,93,0.00,,FEW,0.00,21.00,VWS V14.01,2013-09-03 12:38:00,
2013-09-03 07:43:00,43.9,42.3,30.08,SW,232,3.0,3.0,94,0.00,,FEW,0.00,19.00,VWS V14.01,2013-09-03 12:43:00,
2013-09-03 07:48:00,44.3,42.7,30.08,SW,233,0.0,5.0,94,0.00,,FEW,0.00,19.00,VWS V14.01,2013-09-03 12:48:00,
2013-09-03 07:53:00,45.8,44.2,30.08,SW,233,1.0,3.0,94,0.00,,FEW,0.00,21.00,VWS V14.01,2013-09-03 12:53:00,
2013-09-03 07:58:00,46.9,45.5,30.08,SW,233,4.0,4.0,95,0.00,,FEW,0.00,23.00,VWS V14.01,2013-09-03 12:58:00,
2013-09-03 08:03:00,48.1,46.7,30.08,SW,233,3.0,5.0,95,0.00,,FEW,0.00,25.00,VWS V14.01,2013-09-03 13:03:00,
2013-09-03 08:08:00,49.1,47.7,30.08,SW,233,0.0,2.0,95,0.01,,FEW,0.01,26.00,VWS V14.01,2013-09-03 13:08:00,
2013-09-03 08:13:00,50.0,48.6,30.08,WSW,239,3.0,3.0,95,0.01,,FEW,0.01,28.00,VWS V14.01,2013-09-03 13:13:00,
2013-09-03 08:18:00,50.6,49.2,30.08,WSW,240,2.0,4.0,95,0.01,,FEW,0.01,28.00,VWS V14.01,2013-09-03 13:18:00,
2013-09-03 08:23:00,50.9,49.5,30.08,West,275,3.0,6.0,95,0.01,,FEW,0.01,37.00,VWS V14.01,2013-09-03 13:23:00,
2013-09-03 08:29:00,51.0,49.6,30.08,WSW,256,2.0,5.0,95,0.01,,FEW,0.01,137.00,VWS V14.01,2013-09-03 13:29:00,
2013-09-03 08:34:00,51.4,50.0,30.08,West,265,0.0,5.0,95,0.01,,FEW,0.01,65.00,VWS V14.01,2013-09-03 13:34:00,
2013-09-03 08:39:00,51.7,50.3,30.08,WSW,255,4.0,6.0,95,0.01,,FEW,0.01,264.00,VWS V14.01,2013-09-03 13:39:00,
2013-09-03 08:44:00,52.1,50.7,30.08,West,267,4.0,6.0,95,0.01,,FEW,0.01,278.00,VWS V14.01,2013-09-03 13:44:00,
2013-09-03 08:49:00,52.4,51.0,30.08,West,277,6.0,8.0,95,0.01,,FEW,0.01,327.00,VWS V14.01,2013-09-03 13:49:00,
2013-09-03 08:54:00,52.6,51.2,30.08,WSW,246,4.0,7.0,95,0.01,,FEW,0.01,343.00,VWS V14.01,2013-09-03 13:54:00,
2013-09-03 08:59:00,52.8,51.1,30.08,West,277,5.0,7.0,94,0.01,,FEW,0.01,357.00,VWS V14.01,2013-09-03 13:59:00,
2013-09-03 09:04:00,53.2,51.8,30.08,West,269,5.0,9.0,95,0.01,,FEW,0.01,322.00,VWS V14.01,2013-09-03 14:04:00,
2013-09-03 09:09:00,53.7,52.0,30.08,West,264,6.0,6.0,94,0.00,,FEW,0.01,388.00,VWS V14.01,2013-09-03 14:09:00,
2013-09-03 09:14:00,54.2,52.5,30.08,WNW,285,6.0,7.0,94,0.00,,FEW,0.01,401.00,VWS V14.01,2013-09-03 14:14:00,
2013-09-03 09:19:00,54.7,53.0,30.08,West,266,4.0,7.0,94,0.00,,FEW,0.01,425.00,VWS V14.01,2013-09-03 14:19:00,
2013-09-03 09:24:00,55.3,53.3,30.08,West,271,4.0,5.0,93,0.00,,FEW,0.01,443.00,VWS V14.01,2013-09-03 14:24:00,
2013-09-03 09:29:00,55.9,53.9,30.08,West,260,3.0,6.0,93,0.00,,FEW,0.01,468.00,VWS V14.01,2013-09-03 14:29:00,
2013-09-03 09:34:00,56.5,53.9,30.08,West,269,6.0,9.0,91,0.00,,FEW,0.01,485.00,VWS V14.01,2013-09-03 14:34:00,
2013-09-03 09:39:00,57.1,54.2,30.08,WSW,250,4.0,7.0,90,0.00,,FEW,0.01,504.00,VWS V14.01,2013-09-03 14:39:00,
2013-09-03 09:44:00,57.8,54.3,30.08,West,259,4.0,7.0,88,0.00,,FEW,0.01,526.00,VWS V14.01,2013-09-03 14:44:00,
2013-09-03 09:49:00,58.3,53.8,30.08,West,269,4.0,7.0,85,0.00,,FEW,0.01,534.00,VWS V14.01,2013-09-03 14:49:00,
2013-09-03 09:54:00,58.7,53.2,30.08,West,278,6.0,9.0,82,0.00,,FEW,0.01,543.00,VWS V14.01,2013-09-03 14:54:00,
2013-09-03 09:59:00,59.0,53.2,30.08,West,279,5.0,9.0,81,0.00,,FEW,0.01,559.00,VWS V14.01,2013-09-03 14:59:00,
2013-09-03 10:04:00,59.3,52.8,30.08,West,273,5.0,10.0,79,0.00,,FEW,0.01,571.00,VWS V14.01,2013-09-03 15:04:00,
2013-09-03 10:09:00,59.7,53.5,30.08,WSW,252,1.0,8.0,80,0.00,,FEW,0.01,587.00,VWS V14.01,2013-09-03 15:09:00,
2013-09-03 10:14:00,60.1,53.2,30.08,WSW,250,8.0,10.0,78,0.00,,FEW,0.01,594.00,VWS V14.01,2013-09-03 15:14:00,
2013-09-03 10:19:00,60.3,53.1,30.07,WSW,251,2.0,8.0,77,0.00,,FEW,0.01,612.00,VWS V14.01,2013-09-03 15:19:00,
2013-09-03 10:24:00,60.7,53.5,30.08,West,275,5.0,9.0,77,0.00,,FEW,0.01,619.00,VWS V14.01,2013-09-03 15:24:00,
2013-09-03 10:29:00,61.1,53.1,30.07,WSW,247,3.0,11.0,75,0.00,,FEW,0.01,642.00,VWS V14.01,2013-09-03 15:29:00,
2013-09-03 10:35:00,61.2,53.2,30.07,West,277,10.0,10.0,75,0.00,,FEW,0.01,628.00,VWS V14.01,2013-09-03 15:35:00,
2013-09-03 10:40:00,61.8,53.8,30.07,WNW,288,6.0,10.0,75,0.00,,FEW,0.01,624.00,VWS V14.01,2013-09-03 15:40:00,
2013-09-03 10:45:00,62.0,54.0,30.07,WSW,242,5.0,9.0,75,0.00,,FEW,0.01,663.00,VWS V14.01,2013-09-03 15:45:00,
2013-09-03 10:50:00,62.2,54.2,30.07,WSW,238,10.0,15.0,75,0.00,,FEW,0.01,650.00,VWS V14.01,2013-09-03 15:50:00,
2013-09-03 10:55:00,62.2,54.5,30.07,WSW,238,9.0,9.0,76,0.00,,FEW,0.01,680.00,VWS V14.01,2013-09-03 15:55:00,
2013-09-03 11:00:00,62.5,54.5,30.07,West,271,10.0,11.0,75,0.00,,FEW,0.01,694.00,VWS V14.01,2013-09-03 16:00:00,
2013-09-03 11:05:00,62.5,53.4,30.07,West,268,8.0,12.0,72,0.00,,FEW,0.01,664.00,VWS V14.01,2013-09-03 16:05:00,
2013-09-03 11:10:00,62.9,54.1,30.07,WNW,285,7.0,13.0,73,0.00,,FEW,0.01,700.00,VWS V14.01,2013-09-03 16:10:00,
2013-09-03 11:15:00,62.9,53.8,30.07,WNW,282,9.0,12.0,72,0.00,,FEW,0.01,686.00,VWS V14.01,2013-09-03 16:15:00,
2013-09-03 11:20:00,63.0,53.8,30.07,WNW,292,9.0,13.0,72,0.00,,FEW,0.01,635.00,VWS V14.01,2013-09-03 16:20:00,
2013-09-03 11:25:00,63.2,54.4,30.07,WSW,251,9.0,13.0,73,0.00,,FEW,0.01,624.00,VWS V14.01,2013-09-03 16:25:00,
2013-09-03 11:30:00,63.4,54.2,30.07,WSW,250,6.0,10.0,72,0.00,,FEW,0.01,664.00,VWS V14.01,2013-09-03 16:30:00,
2013-09-03 11:35:00,63.4,53.8,30.07,WNW,290,4.0,13.0,71,0.00,,FEW,0.01,712.00,VWS V14.01,2013-09-03 16:35:00,
2013-09-03 11:40:00,63.8,54.6,30.07,WSW,254,8.0,14.0,72,0.00,,FEW,0.01,742.00,VWS V14.01,2013-09-03 16:40:00,
2013-09-03 11:45:00,63.9,53.9,30.06,WSW,247,7.0,12.0,70,0.00,,FEW,0.01,715.00,VWS V14.01,2013-09-03 16:45:00,
2013-09-03 11:50:00,64.1,54.5,30.06,West,277,8.0,13.0,71,0.00,,FEW,0.01,626.00,VWS V14.01,2013-09-03 16:50:00,
2013-09-03 11:55:00,64.2,54.2,30.05,WSW,246,8.0,11.0,70,0.00,,FEW,0.01,670.00,VWS V14.01,2013-09-03 16:55:00,
2013-09-03 12:00:00,64.8,55.6,30.05,WSW,258,4.0,11.0,72,0.00,,FEW,0.01,805.00,VWS V14.01,2013-09-03 17:00:00,
2013-09-03 12:05:00,64.9,54.1,30.05,WSW,255,4.0,10.0,68,0.00,,FEW,0.01,773.00,VWS V14.01,2013-09-03 17:05:00,
2013-09-03 12:10:00,65.0,53.8,30.05,WSW,258,4.0,14.0,67,0.00,,FEW,0.01,803.00,VWS V14.01,2013-09-03 17:10:00,
2013-09-03 12:15:00,65.3,54.5,30.04,West,270,5.0,13.0,68,0.00,,FEW,0.01,844.00,VWS V14.01,2013-09-03 17:15:00,
2013-09-03 12:20:00,65.8,55.0,30.04,WSW,244,8.0,12.0,68,0.00,,FEW,0.01,809.00,VWS V14.01,2013-09-03 17:20:00,
2013-09-03 12:25:00,65.6,54.8,30.04,WSW,246,6.0,11.0,68,0.00,,FEW,0.01,849.00,VWS V14.01,2013-09-03 17:25:00,
2013-09-03 12:31:00,65.7,54.9,30.03,West,274,9.0,13.0,68,0.00,,FEW,0.01,844.00,VWS V14.01,2013-09-03 17:31:00,
2013-09-03 12:36:00,66.0,54.7,30.03,WSW,238,7.0,10.0,67,0.00,,FEW,0.01,816.00,VWS V14.01,2013-09-03 17:36:00,
2013-09-03 12:41:00,66.3,55.8,30.03,WSW,243,10.0,11.0,69,0.00,,FEW,0.01,816.00,VWS V14.01,2013-09-03 17:41:00,
2013-09-03 12:46:00,66.3,55.4,30.03,WNW,294,8.0,10.0,68,0.00,,FEW,0.01,833.00,VWS V14.01,2013-09-03 17:46:00,
2013-09-03 12:51:00,66.4,54.7,30.02,WSW,238,5.0,13.0,66,0.00,,FEW,0.01,828.00,VWS V14.01,2013-09-03 17:51:00,
2013-09-03 12:56:00,66.5,55.6,30.03,WSW,246,6.0,13.0,68,0.00,,FEW,0.01,833.00,VWS V14.01,2013-09-03 17:56:00,
2013-09-03 13:01:00,66.8,55.9,30.02,SW,236,7.0,11.0,68,0.00,,FEW,0.01,837.00,VWS V14.01,2013-09-03 18:01:00,
2013-09-03 13:06:00,67.1,55.8,30.03,West,272,10.0,14.0,67,0.00,,FEW,0.01,840.00,VWS V14.01,2013-09-03 18:06:00,
2013-09-03 13:11:00,67.1,56.6,30.02,WSW,245,6.0,9.0,69,0.00,,FEW,0.01,826.00,VWS V14.01,2013-09-03 18:11:00,
2013-09-03 13:16:00,67.5,56.6,30.02,West,275,9.0,13.0,68,0.00,,FEW,0.01,830.00,VWS V14.01,2013-09-03 18:16:00,
2013-09-03 13:21:00,67.4,56.5,30.02,West,277,11.0,12.0,68,0.00,,FEW,0.01,830.00,VWS V14.01,2013-09-03 18:21:00,
2013-09-03 13:26:00,67.5,55.8,30.01,West,261,4.0,12.0,66,0.00,,FEW,0.01,828.00,VWS V14.01,2013-09-03 18:26:00,
2013-09-03 13:31:00,67.7,57.2,30.01,WSW,256,5.0,16.0,69,0.00,,FEW,0.01,828.00,VWS V14.01,2013-09-03 18:31:00,
2013-09-03 13:36:00,67.7,56.4,30.02,WSW,242,9.0,14.0,67,0.00,,FEW,0.01,831.00,VWS V14.01,2013-09-03 18:36:00,
2013-09-03 13:41:00,68.0,56.7,30.01,WNW,287,7.0,12.0,67,0.00,,FEW,0.01,835.00,VWS V14.01,2013-09-03 18:41:00,
2013-09-03 13:46:00,68.0,56.2,30.01,WSW,249,8.0,12.0,66,0.00,,FEW,0.01,840.00,VWS V14.01,2013-09-03 18:46:00,
2013-09-03 13:51:00,68.0,57.1,30.01,WSW,238,9.0,13.0,68,0.00,,FEW,0.01,807.00,VWS V14.01,2013-09-03 18:51:00,
2013-09-03 13:56:00,68.1,58.3,30.01,WNW,290,8.0,11.0,71,0.00,,FEW,0.01,795.00,VWS V14.01,2013-09-03 18:56:00,
2013-09-03 14:01:00,68.5,57.1,30.01,WNW,283,6.0,6.0,67,0.00,,FEW,0.01,795.00,VWS V14.01,2013-09-03 19:01:00,
2013-09-03 14:06:00,68.5,56.3,30.01,West,265,4.0,5.0,65,0.00,,FEW,0.01,812.00,VWS V14.01,2013-09-03 19:06:00,
2013-09-03 14:11:00,68.7,56.9,30.01,West,275,7.0,7.0,66,0.00,,FEW,0.01,722.00,VWS V14.01,2013-09-03 19:11:00,
2013-09-03 14:16:00,68.9,57.1,30.01,West,275,12.0,12.0,66,0.00,,FEW,0.01,823.00,VWS V14.01,2013-09-03 19:16:00,
2013-09-03 14:21:00,68.9,57.5,30.01,West,274,10.0,10.0,67,0.00,,FEW,0.01,821.00,VWS V14.01,2013-09-03 19:21:00,
2013-09-03 14:26:00,69.1,56.4,30.01,West,267,6.0,10.0,64,0.00,,FEW,0.01,796.00,VWS V14.01,2013-09-03 19:26:00,
2013-09-03 14:31:00,69.4,56.7,30.01,WNW,285,10.0,11.0,64,0.00,,FEW,0.01,786.00,VWS V14.01,2013-09-03 19:31:00,
2013-09-03 14:36:00,69.3,56.2,30.01,SW,236,8.0,8.0,63,0.00,,FEW,0.01,773.00,VWS V14.01,2013-09-03 19:36:00,
2013-09-03 14:41:00,69.5,56.8,30.01,WSW,252,11.0,12.0,64,0.00,,FEW,0.01,768.00,VWS V14.01,2013-09-03 19:41:00,
2013-09-03 14:47:00,69.6,56.9,30.01,West,268,4.0,6.0,64,0.00,,FEW,0.01,761.00,VWS V14.01,2013-09-03 19:47:00,
2013-09-03 14:52:00,69.7,57.0,30.00,West,259,6.0,8.0,64,0.00,,FEW,0.01,758.00,VWS V14.01,2013-09-03 19:52:00,
2013-09-03 14:57:00,69.7,57.0,30.00,WNW,282,7.0,9.0,64,0.00,,FEW,0.01,756.00,VWS V14.01,2013-09-03 19:57:00,
2013-09-03 15:02:00,69.7,57.0,30.00,WSW,243,6.0,7.0,64,0.00,,FEW,0.01,742.00,VWS V14.01,2013-09-03 20:02:00,
2013-09-03 15:07:00,69.9,57.6,30.00,WSW,250,11.0,11.0,65,0.00,,FEW,0.01,728.00,VWS V14.01,2013-09-03 20:07:00,
2013-09-03 15:12:00,70.0,57.3,30.00,West,259,8.0,8.0,64,0.00,,FEW,0.01,722.00,VWS V14.01,2013-09-03 20:12:00,
2013-09-03 15:17:00,70.2,58.7,29.99,WSW,249,7.0,7.0,67,0.00,,FEW,0.01,712.00,VWS V14.01,2013-09-03 20:17:00,
2013-09-03 15:22:00,70.4,57.7,29.99,WSW,244,6.0,8.0,64,0.00,,FEW,0.01,701.00,VWS V14.01,2013-09-03 20:22:00,
2013-09-03 15:27:00,70.4,57.2,29.99,West,275,10.0,12.0,63,0.00,,FEW,0.01,696.00,VWS V14.01,2013-09-03 20:27:00,
2013-09-03 15:32:00,70.4,57.2,29.99,WNW,301,10.0,12.0,63,0.00,,FEW,0.01,689.00,VWS V14.01,2013-09-03 20:32:00,
2013-09-03 15:37:00,70.4,56.3,29.99,WSW,242,5.0,9.0,61,0.00,,FEW,0.01,677.00,VWS V14.01,2013-09-03 20:37:00,
2013-09-03 15:42:00,70.5,56.4,29.99,West,267,5.0,6.0,61,0.00,,FEW,0.01,664.00,VWS V14.01,2013-09-03 20:42:00,
2013-09-03 15:47:00,70.6,57.0,29.99,WSW,248,9.0,9.0,62,0.00,,FEW,0.01,652.00,VWS V14.01,2013-09-03 20:47:00,
2013-09-03 15:52:00,70.6,57.0,29.98,SW,236,11.0,13.0,62,0.00,,FEW,0.01,638.00,VWS V14.01,2013-09-03 20:52:00,
2013-09-03 15:57:00,70.7,57.5,29.98,SW,234,15.0,15.0,63,0.00,,FEW,0.01,628.00,VWS V14.01,2013-09-03 20:57:00,
2013-09-03 16:02:00,70.7,57.9,29.98,WSW,255,9.0,9.0,64,0.00,,FEW,0.01,613.00,VWS V14.01,2013-09-03 21:02:00,
2013-09-03 16:07:00,70.9,56.8,29.98,WNW,286,6.0,10.0,61,0.00,,FEW,0.01,603.00,VWS V14.01,2013-09-03 21:07:00,
2013-09-03 16:12:00,70.8,57.2,29.98,WNW,286,8.0,12.0,62,0.00,,FEW,0.01,594.00,VWS V14.01,2013-09-03 21:12:00,
2013-09-03 16:17:00,70.8,57.2,29.98,West,281,12.0,12.0,62,0.00,,FEW,0.01,578.00,VWS V14.01,2013-09-03 21:17:00,
2013-09-03 16:22:00,70.8,56.7,29.98,WSW,255,5.0,10.0,61,0.00,,FEW,0.01,568.00,VWS V14.01,2013-09-03 21:22:00,
2013-09-03 16:28:00,70.9,56.8,29.98,West,270,10.0,12.0,61,0.00,,FEW,0.01,554.00,VWS V14.01,2013-09-03 21:28:00,
2013-09-03 16:33:00,71.1,57.0,29.98,West,269,4.0,9.0,61,0.00,,FEW,0.01,540.00,VWS V14.01,2013-09-03 21:33:00,
2013-09-03 16:38:00,71.1,56.5,29.98,West,271,10.0,10.0,60,0.00,,FEW,0.01,527.00,VWS V14.01,2013-09-03 21:38:00,
2013-09-03 16:43:00,71.3,57.6,29.97,WSW,247,6.0,10.0,62,0.00,,FEW,0.01,515.00,VWS V14.01,2013-09-03 21:43:00,
2013-09-03 16:48:00,71.3,58.5,29.97,WSW,254,8.0,10.0,64,0.00,,FEW,0.01,503.00,VWS V14.01,2013-09-03 21:48:00,
2013-09-03 16:53:00,71.3,57.2,29.97,West,276,7.0,10.0,61,0.00,,FEW,0.01,489.00,VWS V14.01,2013-09-03 21:53:00,
2013-09-03 16:58:00,71.3,58.5,29.97,West,273,8.0,10.0,64,0.00,,FEW,0.01,473.00,VWS V14.01,2013-09-03 21:58:00,
2013-09-03 17:03:00,71.3,57.6,29.97,WSW,246,10.0,10.0,62,0.00,,FEW,0.01,459.00,VWS V14.01,2013-09-03 22:03:00,
2013-09-03 17:08:00,71.3,57.6,29.97,West,262,11.0,13.0,62,0.00,,FEW,0.01,441.00,VWS V14.01,2013-09-03 22:08:00,
2013-09-03 17:13:00,71.2,56.6,29.97,WSW,246,7.0,10.0,60,0.00,,FEW,0.01,425.00,VWS V14.01,2013-09-03 22:13:00,
2013-09-03 17:18:00,71.3,58.5,29.97,WSW,242,4.0,8.0,64,0.00,,FEW,0.01,411.00,VWS V14.01,2013-09-03 22:18:00,
2013-09-03 17:23:00,71.3,58.5,29.97,West,264,5.0,9.0,64,0.00,,FEW,0.01,396.00,VWS V14.01,2013-09-03 22:23:00,
2013-09-03 17:28:00,71.3,57.6,29.97,West,265,7.0,14.0,62,0.00,,FEW,0.01,378.00,VWS V14.01,2013-09-03 22:28:00,
2013-09-03 17:33:00,71.4,57.7,29.97,West,268,8.0,10.0,62,0.00,,FEW,0.01,364.00,VWS V14.01,2013-09-03 22:33:00,
2013-09-03 17:38:00,71.4,58.2,29.96,WSW,250,11.0,11.0,63,0.00,,FEW,0.01,352.00,VWS V14.01,2013-09-03 22:38:00,
2013-09-03 17:43:00,71.3,58.9,29.97,West,274,8.0,10.0,65,0.00,,FEW,0.01,338.00,VWS V14.01,2013-09-03 22:43:00,
2013-09-03 17:48:00,71.3,58.5,29.97,WSW,246,6.0,11.0,64,0.00,,FEW,0.01,318.00,VWS V14.01,2013-09-03 22:48:00,
2013-09-03 17:53:00,71.3,58.9,29.97,WSW,242,7.0,10.0,65,0.00,,FEW,0.01,304.00,VWS V14.01,2013-09-03 22:53:00,
2013-09-03 17:59:00,71.2,57.5,29.96,West,260,8.0,9.0,62,0.00,,FEW,0.01,288.00,VWS V14.01,2013-09-03 22:59:00,
2013-09-03 18:04:00,71.2,57.1,29.97,WNW,282,9.0,10.0,61,0.00,,FEW,0.01,272.00,VWS V14.01,2013-09-03 23:04:00,
2013-09-03 18:09:00,71.2,58.0,29.96,WSW,242,8.0,9.0,63,0.00,,FEW,0.01,257.00,VWS V14.01,2013-09-03 23:09:00,
2013-09-03 18:14:00,71.0,56.9,29.96,West,269,5.0,10.0,61,0.00,,FEW,0.01,239.00,VWS V14.01,2013-09-03 23:14:00,
2013-09-03 18:19:00,71.0,57.3,29.96,WSW,254,5.0,7.0,62,0.00,,FEW,0.01,220.00,VWS V14.01,2013-09-03 23:19:00,
2013-09-03 18:24:00,70.8,58.0,29.96,West,263,5.0,8.0,64,0.00,,FEW,0.01,199.00,VWS V14.01,2013-09-03 23:24:00,
2013-09-03 18:29:00,70.7,58.4,29.96,WSW,258,3.0,8.0,65,0.00,,FEW,0.01,178.00,VWS V14.01,2013-09-03 23:29:00,
2013-09-03 18:34:00,70.7,58.4,29.96,West,264,4.0,8.0,65,0.00,,FEW,0.01,156.00,VWS V14.01,2013-09-03 23:34:00,
2013-09-03 18:39:00,70.6,59.1,29.96,WSW,239,5.0,9.0,67,0.00,,FEW,0.01,139.00,VWS V14.01,2013-09-03 23:39:00,
2013-09-03 18:44:00,70.4,58.1,29.96,WSW,249,3.0,8.0,65,0.00,,FEW,0.01,120.00,VWS V14.01,2013-09-03 23:44:00,
2013-09-03 18:49:00,70.2,57.5,29.95,WSW,244,5.0,6.0,64,0.00,,FEW,0.01,98.00,VWS V14.01,2013-09-03 23:49:00,
2013-09-03 18:54:00,70.0,57.7,29.95,WSW,248,2.0,6.0,65,0.00,,FEW,0.01,84.00,VWS V14.01,2013-09-03 23:54:00,
2013-09-03 18:59:00,69.7,57.0,29.95,WSW,248,4.0,6.0,64,0.00,,FEW,0.01,69.00,VWS V14.01,2013-09-03 23:59:00,
2013-09-03 19:04:00,69.4,57.1,29.96,WSW,257,2.0,5.0,65,0.00,,FEW,0.01,53.00,VWS V14.01,2013-09-04 00:04:00,
2013-09-03 19:09:00,69.2,58.6,29.96,West,263,0.0,5.0,69,0.00,,FEW,0.01,40.00,VWS V14.01,2013-09-04 00:09:00,
2013-09-03 19:14:00,68.8,57.8,29.95,West,260,1.0,4.0,68,0.00,,FEW,0.01,21.00,VWS V14.01,2013-09-04 00:14:00,
2013-09-03 19:19:00,68.4,58.2,29.95,West,259,2.0,3.0,70,0.00,,FEW,0.01,16.00,VWS V14.01,2013-09-04 00:19:00,
2013-09-03 19:24:00,68.0,58.7,29.95,West,260,3.0,4.0,72,0.00,,FEW,0.01,12.00,VWS V14.01,2013-09-04 00:24:00,
2013-09-03 19:29:00,67.7,58.4,29.95,West,262,4.0,5.0,72,0.00,,FEW,0.01,7.00,VWS V14.01,2013-09-04 00:29:00,
2013-09-03 19:34:00,67.4,58.1,29.95,WSW,256,4.0,4.0,72,0.00,,FEW,0.01,0.00,VWS V14.01,2013-09-04 00:34:00,
2013-09-03 19:39:00,67.1,58.2,29.95,West,263,3.0,5.0,73,0.00,,FEW,0.01,0.00,VWS V14.01,2013-09-04 00:39:00,
2013-09-03 19:44:00,66.9,58.3,29.95,West,263,2.0,3.0,74,0.00,,FEW,0.01,0.00,VWS V14.01,2013-09-04 00:44:00,
2013-09-03 19:49:00,66.6,58.8,29.95,WSW,257,2.0,5.0,76,0.00,,FEW,0.01,0.00,VWS V14.01,2013-09-04 00:49:00,
2013-09-03 19:54:00,66.1,58.7,29.95,WSW,254,3.0,4.0,77,0.00,,FEW,0.01,0.00,VWS V14.01,2013-09-04 00:54:00,
2013-09-03 19:59:00,65.8,58.4,29.95,WSW,254,0.0,3.0,77,0.00,,FEW,0.01,0.00,VWS V14.01,2013-09-04 00:59:00,
2013-09-03 20:04:00,65.4,57.7,29.95,WSW,248,2.0,5.0,76,0.00,,FEW,0.01,0.00,VWS V14.01,2013-09-04 01:04:00,
2013-09-03 20:09:00,65.1,57.7,29.95,WSW,256,4.0,4.0,77,0.00,,FEW,0.01,0.00,VWS V14.01,2013-09-04 01:09:00,
2013-09-03 20:14:00,65.0,58.0,29.96,WSW,257,1.0,4.0,78,0.00,,FEW,0.01,0.00,VWS V14.01,2013-09-04 01:14:00,
2013-09-03 20:19:00,64.9,58.2,29.96,WSW,258,0.0,5.0,79,0.00,,FEW,0.01,0.00,VWS V14.01,2013-09-04 01:19:00,
2013-09-03 20:24:00,64.7,57.7,29.96,WSW,248,4.0,5.0,78,0.00,,FEW,0.01,0.00,VWS V14.01,2013-09-04 01:24:00,
2013-09-03 20:29:00,64.4,57.0,29.96,WSW,248,2.0,4.0,77,0.00,,FEW,0.01,0.00,VWS V14.01,2013-09-04 01:29:00,
2013-09-03 20:34:00,64.3,58.0,29.96,WSW,248,0.0,0.0,80,0.00,,FEW,0.01,0.00,VWS V14.01,2013-09-04 01:34:00,
2013-09-03 20:39:00,63.9,57.3,29.97,WSW,248,1.0,4.0,79,0.00,,FEW,0.01,0.00,VWS V14.01,2013-09-04 01:39:00,
2013-09-03 20:44:00,63.8,57.5,29.97,WSW,247,3.0,3.0,80,0.00,,FEW,0.01,0.00,VWS V14.01,2013-09-04 01:44:00,
2013-09-03 20:49:00,63.5,57.2,29.97,WSW,247,0.0,2.0,80,0.00,,FEW,0.01,0.00,VWS V14.01,2013-09-04 01:49:00,
2013-09-03 20:55:00,63.4,57.5,29.97,WSW,248,1.0,1.0,81,0.00,,FEW,0.01,0.00,VWS V14.01,2013-09-04 01:55:00,
2013-09-03 21:00:00,63.3,57.0,29.97,WSW,257,4.0,4.0,80,0.00,,FEW,0.01,0.00,VWS V14.01,2013-09-04 02:00:00,
2013-09-03 21:05:00,63.3,57.7,29.97,WSW,257,0.0,0.0,82,0.00,,FEW,0.01,0.00,VWS V14.01,2013-09-04 02:05:00,
2013-09-03 21:10:00,63.2,57.6,29.97,WSW,257,0.0,0.0,82,0.00,,FEW,0.01,0.00,VWS V14.01,2013-09-04 02:10:00,
2013-09-03 21:15:00,63.0,57.1,29.97,WSW,255,0.0,4.0,81,0.00,,FEW,0.01,0.00,VWS V14.01,2013-09-04 02:15:00,
2013-09-03 21:20:00,62.5,56.6,29.97,WSW,254,2.0,3.0,81,0.00,,FEW,0.01,0.00,VWS V14.01,2013-09-04 02:20:00,
2013-09-03 21:25:00,62.2,56.6,29.97,WSW,246,0.0,3.0,82,0.00,,FEW,0.01,0.00,VWS V14.01,2013-09-04 02:25:00,
2013-09-03 21:30:00,62.2,56.6,29.97,WSW,252,0.0,5.0,82,0.00,,FEW,0.01,0.00,VWS V14.01,2013-09-04 02:30:00,
2013-09-03 21:35:00,62.1,56.9,29.97,WSW,251,0.0,3.0,83,0.00,,FEW,0.01,0.00,VWS V14.01,2013-09-04 02:35:00,
2013-09-03 21:40:00,62.0,56.8,29.97,WSW,252,0.0,2.0,83,0.00,,FEW,0.01,0.00,VWS V14.01,2013-09-04 02:40:00,
2013-09-03 21:45:00,62.1,57.2,29.97,WSW,252,0.0,3.0,84,0.00,,FEW,0.01,0.00,VWS V14.01,2013-09-04 02:45:00,
2013-09-03 21:50:00,61.9,56.7,29.97,WSW,250,0.0,4.0,83,0.00,,FEW,0.01,0.00,VWS V14.01,2013-09-04 02:50:00,
2013-09-03 21:55:00,61.9,57.0,29.97,WSW,257,0.0,4.0,84,0.00,,FEW,0.01,0.00,VWS V14.01,2013-09-04 02:55:00,
2013-09-03 22:00:00,61.8,56.6,29.97,WSW,256,0.0,2.0,83,0.00,,FEW,0.01,0.00,VWS V14.01,2013-09-04 03:00:00,
2013-09-03 22:05:00,61.7,56.5,29.97,WSW,255,0.0,2.0,83,0.00,,FEW,0.01,0.00,VWS V14.01,2013-09-04 03:05:00,
2013-09-03 22:10:00,61.5,56.3,29.97,WSW,254,0.0,1.0,83,0.00,,FEW,0.01,0.00,VWS V14.01,2013-09-04 03:10:00,
2013-09-03 22:15:00,61.4,56.2,29.98,WSW,255,1.0,3.0,83,0.00,,FEW,0.01,0.00,VWS V14.01,2013-09-04 03:15:00,
2013-09-03 22:20:00,61.4,56.5,29.98,WSW,254,0.0,1.0,84,0.00,,FEW,0.01,0.00,VWS V14.01,2013-09-04 03:20:00,
2013-09-03 22:25:00,60.9,55.7,29.98,WSW,254,0.0,1.0,83,0.00,,FEW,0.01,0.00,VWS V14.01,2013-09-04 03:25:00,
2013-09-03 22:30:00,60.8,56.3,29.98,WSW,254,0.0,0.0,85,0.00,,FEW,0.01,0.00,VWS V14.01,2013-09-04 03:30:00,
2013-09-03 22:35:00,61.0,56.8,29.98,WSW,254,0.0,0.0,86,0.00,,FEW,0.01,0.00,VWS V14.01,2013-09-04 03:35:00,
2013-09-03 22:40:00,60.9,56.7,29.97,WSW,254,0.0,0.0,86,0.00,,FEW,0.01,0.00,VWS V14.01,2013-09-04 03:40:00,
2013-09-03 22:45:00,60.6,56.7,29.98,WSW,254,0.0,1.0,87,0.00,,FEW,0.01,0.00,VWS V14.01,2013-09-04 03:45:00,
2013-09-03 22:50:00,60.4,56.5,29.98,WSW,254,0.0,0.0,87,0.00,,FEW,0.01,0.00,VWS V14.01,2013-09-04 03:50:00,
2013-09-03 22:55:00,60.3,56.7,29.98,WSW,254,0.0,1.0,88,0.00,,FEW,0.01,0.00,VWS V14.01,2013-09-04 03:55:00,
2013-09-03 23:00:00,60.4,56.8,29.98,WSW,254,3.0,3.0,88,0.00,,FEW,0.01,0.00,VWS V14.01,2013-09-04 04:00:00,
2013-09-03 23:01:00,60.4,56.8,29.98,WSW,255,0.0,3.0,88,0.00,,FEW,0.01,0.00,VWS V14.01,2013-09-04 04:01:00,
2013-09-03 23:02:00,60.3,56.7,29.98,WSW,254,0.0,0.0,88,0.00,,FEW,0.01,0.00,VWS V14.01,2013-09-04 04:02:00,
2013-09-03 23:03:00,60.3,56.7,29.98,WSW,254,2.0,2.0,88,0.00,,FEW,0.01,0.00,VWS V14.01,2013-09-04 04:03:00,
2013-09-03 23:04:00,60.2,56.3,29.98,WSW,254,0.0,2.0,87,0.00,,FEW,0.01,0.00,VWS V14.01,2013-09-04 04:04:00,
2013-09-03 23:09:00,60.2,56.6,29.98,WSW,255,0.0,0.0,88,0.00,,FEW,0.01,0.00,VWS V14.01,2013-09-04 04:09:00,
2013-09-03 23:14:00,60.1,56.5,29.98,WSW,254,1.0,4.0,88,0.00,,FEW,0.01,0.00,VWS V14.01,2013-09-04 04:14:00,
2013-09-03 23:19:00,60.0,56.1,29.98,WSW,254,0.0,3.0,87,0.00,,FEW,0.01,0.00,VWS V14.01,2013-09-04 04:19:00,
2013-09-03 23:24:00,60.1,56.5,29.97,WSW,254,0.0,0.0,88,0.00,,FEW,0.01,0.00,VWS V14.01,2013-09-04 04:24:00,
2013-09-03 23:30:00,60.1,56.2,29.98,WSW,254,0.0,3.0,87,0.00,,FEW,0.01,0.00,VWS V14.01,2013-09-04 04:30:00,
2013-09-03 23:35:00,60.2,56.3,29.98,WSW,254,0.0,0.0,87,0.00,,FEW,0.01,0.00,VWS V14.01,2013-09-04 04:35:00,
2013-09-03 23:40:00,60.3,56.4,29.97,WSW,254,0.0,0.0,87,0.00,,FEW,0.01,0.00,VWS V14.01,2013-09-04 04:40:00,
2013-09-03 23:45:00,60.5,56.6,29.97,WSW,254,0.0,0.0,87,0.00,,FEW,0.01,0.00,VWS V14.01,2013-09-04 04:45:00,
2013-09-03 23:50:00,60.5,56.3,29.98,WSW,254,2.0,3.0,86,0.00,,FEW,0.01,0.00,VWS V14.01,2013-09-04 04:50:00,
2013-09-03 23:55:00,60.6,56.7,29.98,WSW,254,1.0,3.0,87,0.00,,FEW,0.01,0.00,VWS V14.01,2013-09-04 04:55:00,